Theta_e
340 342 344 345 346 346 344 343 342 342 342 341 341 341 340 341 340 340 341 330 331 337 341 340 338 336 334 332 332 331 329 328 327 327 327 327 327 327 326 326 325 323 324
341 341 340 342 343 343 343 342 341 340 340 340 339 340 339 340 340 340 340 338 328 330 336 339 339 336 335 331 332 331 329 330 328 326 326 327 327 326 325 325 324 324 324
343 341 339 339 341 341 341 340 340 340 339 339 338 338 338 339 338 337 336 333 334 327 328 335 337 337 334 331 330 330 330 330 328 327 325 326 326 325 325 325 324 323 324
344 341 337 337 340 338 338 337 337 337 337 336 336 336 337 337 337 335 333 332 333 331 328 328 333 334 334 332 330 329 328 329 328 327 326 325 325 324 324 324 324 323 323
340 339 338 336 337 335 334 335 335 336 334 333 333 334 335 333 333 334 331 331 331 330 330 330 328 329 331 332 331 330 328 329 328 328 326 325 325 325 325 324 324 324 323
337 338 338 335 335 333 331 331 332 333 334 334 331 332 333 331 334 332 330 330 331 329 331 329 330 331 326 329 330 331 329 329 329 329 327 326 325 326 325 324 323 323 323
336 337 338 333 334 332 330 329 330 329 328 330 327 326 327 331 329 330 331 330 329 329 329 327 330 332 329 326 329 331 331 330 329 329 328 327 326 325 323 325 324 323 323
336 335 335 333 332 332 330 329 328 326 327 328 324 323 319 323 328 330 331 329 329 328 327 326 327 329 330 328 328 329 331 330 329 329 328 328 327 326 323 326 324 323 323
335 334 334 333 332 332 329 329 329 327 324 325 328 324 317 315 320 326 326 326 327 327 327 326 325 326 329 329 327 325 322 323 329 330 329 328 327 326 324 325 325 324 324
335 334 333 333 331 331 331 330 330 329 328 323 325 326 330 326 319 315 321 324 326 325 324 324 324 324 325 328 325 321 316 315 321 328 329 329 327 326 323 324 324 325 324
334 333 333 332 331 332 332 330 330 329 330 327 324 324 326 324 322 318 315 317 321 324 325 324 323 323 322 324 326 321 314 313 315 323 327 327 327 326 325 325 324 325 326
332 333 332 332 332 331 331 330 330 330 328 327 327 327 323 321 317 317 316 316 319 319 322 322 322 323 324 325 322 316 312 311 312 316 322 324 326 326 325 325 326 326 326
330 330 332 331 331 331 331 331 330 329 328 327 327 326 326 325 323 320 319 318 315 318 317 320 321 322 323 326 325 315 312 309 309 312 316 319 321 323 324 325 325 326 327
331 332 331 331 331 331 331 331 330 329 329 327 327 327 326 325 324 322 321 319 312 313 316 315 321 321 323 323 323 311 321 308 307 308 311 314 316 317 319 320 322 323 325
332 332 332 330 330 330 329 330 330 327 327 327 327 327 326 326 325 326 324 323 319 310 309 315 315 320 322 324 322 325 325 312 307 306 307 309 312 314 314 315 317 319 321
331 330 330 329 329 328 329 328 328 328 326 326 327 326 325 326 326 325 325 322 323 316 311 319 315 318 320 320 318 325 325 314 306 304 304 305 307 310 311 311 312 313 315
328 328 329 331 329 326 327 327 327 326 325 325 325 326 325 325 324 324 324 325 319 318 314 320 317 317 318 318 319 322 324 324 322 304 304 304 304 304 306 307 307 308 310
327 328 327 325 324 325 325 324 323 323 324 324 325 325 323 323 323 324 322 320 320 319 318 313 314 314 315 318 320 322 322 323 324 306 303 302 302 301 301 302 302 303 303
322 322 324 323 322 321 321 321 321 320 321 321 322 322 324 324 321 321 321 319 318 317 317 315 311 314 315 316 316 318 321 321 315 300 298 298 300 300 300 299 299 299 299
319 319 319 318 317 315 311 311 313 314 315 317 319 321 320 320 320 321 321 320 318 316 315 314 312 312 313 314 317 314 309 309 305 302 298 298 297 297 297 296 296 296 296
300 301 307 304 302 297 293 295 303 308 312 313 315 316 319 318 310 314 320 319 318 315 314 313 312 312 311 311 311 314 311 304 301 300 297 298 298 298 297 296 296 295 294
292 292 292 292 291 291 289 290 293 303 309 308 306 308 311 307 307 301 301 303 314 316 314 313 312 310 311 312 314 313 306 301 299 298 296 291 295 293 293 294 293 293 292
287 286 287 288 287 287 288 289 290 299 297 295 295 297 300 303 297 302 294 293 294 297 306 315 313 312 312 313 314 311 306 306 303 296 294 287 290 288 291 291 291 290 289
284 284 284 285 285 285 287 288 289 291 289 288 289 290 292 294 294 296 291 288 287 287 288 293 307 297 296 313 314 313 310 291 288 287 291 284 286 285 288 290 290 289 288
283 283 284 283 283 283 286 287 288 287 286 285 286 287 288 289 289 291 289 286 285 285 287 288 288 288 287 288 293 302 296 296 285 285 286 285 284 284 285 285 287 288 287
283 283 282 282 283 282 284 285 284 284 283 283 284 284 285 286 287 287 290 288 285 285 286 285 285 285 285 285 286 286 295 299 286 285 285 284 284 284 280 284 285 285 286
Wind_Speed
9 9 9 9 9 9 9 9 10 9 11 11 10 11 10 9 8 5 5 5 2 12 19 21 19 18 18 16 15 14 14 15 15 14 13 13 12 11 12 11 11 12 12
9 9 9 10 9 9 8 9 10 9 9 10 11 11 10 8 8 8 5 4 4 3 12 20 20 19 19 18 15 15 15 15 17 16 13 13 12 11 11 10 11 10 10
13 10 8 10 10 8 10 8 9 8 8 8 11 10 9 9 8 8 6 3 6 6 8 17 18 19 19 19 17 16 16 15 17 17 15 13 12 11 11 11 10 11 10
15 10 8 8 8 9 9 9 9 9 9 9 8 8 8 8 9 9 7 4 4 2 6 15 17 18 19 18 18 18 18 16 18 18 17 14 14 13 13 13 12 12 12
12 11 9 8 9 8 8 9 9 10 9 9 8 8 8 7 7 8 8 6 7 4 5 11 14 15 17 18 19 21 19 19 19 19 18 16 16 15 14 14 13 13 12
14 13 9 10 10 8 8 8 9 9 9 9 8 8 8 5 8 7 8 6 7 8 10 7 8 11 14 18 19 21 21 21 20 21 19 18 17 16 14 15 14 13 13
14 14 10 10 11 11 11 11 7 10 6 7 5 4 5 8 9 7 6 6 8 8 9 7 6 10 10 16 19 21 23 22 20 20 19 20 18 16 15 15 14 14 13
17 15 14 13 14 10 12 12 11 5 6 9 5 4 4 7 9 9 8 9 12 8 9 10 9 10 12 12 14 20 21 22 21 21 20 19 19 18 17 16 15 14 14
18 16 15 13 14 12 11 13 13 13 9 7 10 5 4 6 3 6 11 9 10 8 9 11 12 12 14 13 13 16 16 15 20 21 20 20 18 17 17 14 15 16 16
18 18 17 16 13 11 12 13 12 12 10 8 6 8 6 1 5 3 5 6 9 10 12 10 12 13 13 13 16 14 16 15 16 21 21 20 21 20 19 17 15 16 16
18 20 18 16 14 12 13 14 13 14 11 9 8 5 11 7 5 4 5 3 3 6 9 11 11 10 12 12 12 12 16 16 15 16 19 21 21 20 18 17 18 18 18
12 15 15 15 16 14 15 13 15 16 12 10 9 9 8 6 7 6 6 4 7 4 6 6 9 9 10 12 14 14 17 16 16 15 14 17 20 21 21 21 21 20 20
9 15 17 15 14 14 14 13 14 14 14 12 12 10 9 10 6 8 8 6 5 4 4 6 8 8 9 11 13 16 17 18 17 17 15 14 15 18 19 20 20 20 20
11 12 14 13 14 13 13 13 13 11 12 12 15 12 9 10 8 8 9 8 4 6 5 5 8 10 11 11 12 18 14 18 18 17 17 16 15 14 14 14 16 18 19
10 11 15 14 13 12 12 13 10 12 11 12 12 12 11 9 9 9 9 9 10 6 10 8 6 13 12 11 13 16 18 19 18 19 18 17 17 16 15 14 14 13 13
12 11 12 14 12 11 11 12 9 9 10 8 8 10 10 9 9 9 9 9 10 10 7 11 11 7 14 10 11 17 17 13 19 18 18 18 17 17 16 16 16 15 14
10 12 13 14 11 10 11 10 8 9 10 9 8 10 11 11 9 9 9 11 10 10 10 9 7 6 12 13 11 14 14 15 13 18 20 20 19 17 16 15 13 13 13
8 9 9 9 8 9 9 9 7 6 8 10 12 12 13 8 12 13 10 13 12 12 11 13 8 8 10 14 15 15 13 12 13 11 16 14 14 13 12 12 11 11 8
6 6 8 9 8 6 5 5 4 4 4 4 7 10 14 15 14 12 13 11 12 11 12 9 7 5 6 7 10 10 12 10 4 9 10 8 10 11 10 10 9 10 11
7 6 7 7 7 8 9 6 3 0 3 6 8 12 13 13 12 14 15 14 14 13 13 12 8 7 7 5 10 10 7 5 8 6 9 9 12 15 15 15 16 18 18
13 15 14 14 13 14 10 9 6 3 4 6 9 11 13 17 18 18 11 14 16 14 11 12 10 8 8 6 13 10 8 8 6 5 8 7 8 9 9 13 16 18 19
15 16 16 16 17 10 19 16 10 5 3 5 7 9 11 12 12 19 20 21 17 15 16 13 12 13 16 13 11 10 9 7 5 5 5 4 4 7 7 6 16 19 19
16 19 16 15 15 16 21 17 14 6 5 6 7 8 9 8 11 9 4 1 3 10 20 16 17 15 16 16 15 15 11 10 6 8 8 4 2 6 6 11 18 20 19
17 15 16 15 14 15 25 20 10 9 8 9 11 13 10 11 11 4 6 7 9 11 8 3 9 4 3 12 17 15 13 8 7 4 2 6 3 4 6 7 18 19 19
14 15 13 14 15 17 27 23 13 9 9 11 11 15 13 11 15 8 7 8 7 10 16 22 23 20 23 21 10 11 10 11 4 3 1 5 4 7 4 6 7 17 18
13 11 14 14 19 15 27 28 19 8 11 9 11 13 24 18 20 17 8 6 9 5 6 7 9 14 17 18 23 11 2 12 6 3 3 5 9 6 5 2 5 4 7
Wind_Direction
195 194 189 192 195 185 188 187 188 191 192 192 192 194 195 198 199 199 208 213 215 206 183 174 177 177 174 175 168 161 164 173 163 160 167 160 160 156 149 156 157 160 156
195 192 195 192 196 192 187 191 191 192 198 195 199 200 200 201 202 201 201 198 223 180 206 186 180 177 177 180 169 165 176 166 163 167 176 168 167 159 156 159 167 165 164
196 193 191 198 191 189 185 190 193 193 201 200 208 204 202 204 206 203 193 179 181 183 239 239 179 179 183 183 182 178 175 171 170 171 179 180 170 160 165 163 172 173 172
198 191 192 200 188 172 181 190 193 197 206 204 205 209 210 208 211 207 203 201 206 172 214 245 205 185 179 184 188 185 180 179 178 179 178 189 177 175 174 178 176 185 183
190 196 192 189 178 177 174 184 197 203 203 205 208 211 216 210 209 210 209 206 215 195 239 229 214 186 179 184 189 195 187 188 185 184 181 186 186 189 185 184 188 189 186
198 203 191 180 180 172 178 174 183 198 210 206 209 218 212 216 227 215 206 203 202 205 215 218 199 189 183 184 189 195 193 195 192 186 188 186 189 191 193 191 194 198 199
203 197 197 181 185 184 182 175 175 185 183 172 175 212 224 225 223 219 210 206 203 209 210 192 205 203 193 192 192 196 199 195 198 196 190 190 192 197 201 193 198 206 208
201 197 195 191 185 183 178 178 179 167 188 180 183 174 219 230 228 226 224 219 209 203 201 195 194 218 201 201 201 198 197 197 196 203 197 196 194 196 205 199 199 209 215
199 192 195 197 193 185 186 183 183 181 186 184 200 162 189 229 188 206 222 222 213 199 198 195 197 206 208 205 197 193 193 196 196 201 201 201 197 195 208 206 208 210 217
196 194 192 197 199 191 187 189 186 189 178 186 193 229 228 182 213 212 234 230 218 209 203 197 197 200 199 204 200 192 184 198 198 201 203 201 200 199 210 211 213 220 220
200 197 191 188 197 196 189 185 186 191 194 183 189 180 223 222 248 242 232 210 207 229 220 204 190 198 194 197 199 191 179 196 203 205 206 202 204 200 206 209 214 221 219
192 194 195 187 195 197 194 189 190 191 187 193 196 200 188 191 199 202 231 212 221 212 200 198 194 191 195 202 202 189 188 194 199 207 208 211 207 204 205 207 215 220 219
189 196 189 191 193 196 192 186 188 188 193 197 200 205 207 213 204 212 220 217 208 202 190 204 200 197 202 203 206 197 188 197 201 205 208 206 210 212 209 211 216 222 221
198 189 192 192 194 190 190 190 194 189 192 202 207 208 207 213 207 200 213 213 215 204 186 186 200 198 201 203 205 187 202 202 202 203 207 208 211 213 214 214 217 221 218
182 182 186 188 189 187 194 190 192 191 187 202 210 210 212 213 213 216 213 207 216 221 212 202 182 206 205 201 201 201 212 197 202 204 206 209 210 213 216 220 222 221 222
179 176 179 186 174 178 188 193 188 183 188 198 206 209 214 218 213 219 217 221 221 225 237 211 210 190 200 199 192 210 215 197 195 202 204 209 212 214 214 219 223 222 220
175 179 183 185 172 176 179 178 186 177 191 198 200 212 223 221 226 217 220 225 227 221 236 230 197 190 196 196 200 208 215 211 206 203 205 208 211 212 212 220 219 217 218
161 165 173 157 159 164 167 171 177 180 200 216 228 225 231 219 234 231 221 220 218 217 219 224 189 186 190 203 204 201 206 212 212 179 203 203 202 195 191 194 199 205 198
131 156 155 154 149 142 146 137 155 182 210 242 249 241 247 246 239 234 223 223 219 215 213 216 192 184 193 189 193 197 198 195 134 110 105 150 178 180 177 172 163 148 133
95 107 102 95 93 72 51 45 53 288 261 264 264 262 257 255 253 245 227 223 216 214 211 206 197 180 187 169 191 178 152 157 144 108 80 101 109 106 112 115 117 117 114
50 46 51 50 58 53 22 359 334 300 284 294 295 278 267 259 253 250 244 228 217 207 207 203 204 192 183 172 189 181 171 144 126 143 128 127 124 117 113 108 112 115 116
53 58 49 47 43 25 1 3 354 288 292 288 291 302 298 296 279 241 237 238 213 212 209 202 201 202 197 188 183 176 151 153 166 177 125 102 127 118 116 107 121 115 114
54 56 50 51 42 21 6 7 1 26 24 10 350 336 331 332 325 315 354 271 247 237 210 203 205 206 200 193 177 177 174 173 159 152 127 110 109 110 113 118 119 121 127
54 53 51 52 47 29 18 13 21 51 41 29 17 6 352 345 347 357 63 55 57 39 358 18 219 188 241 190 186 183 170 111 76 75 117 116 141 102 107 112 126 127 125
51 51 50 51 52 40 31 25 33 37 44 39 22 18 8 4 360 32 76 83 62 69 50 64 77 69 61 50 52 127 149 150 120 170 62 114 141 110 95 102 115 123 125
55 53 53 42 43 46 44 41 43 36 33 35 36 26 21 20 34 26 52 76 89 56 53 39 45 47 51 50 44 43 175 166 125 117 169 100 145 144 125 102 108 114 121